www.pogodaiklimat.ru

Погода и климат >> Архив погоды >> Россия >> город Севастополь >> Херсонесский Маяк


ПОГОДА в Херсонесском Маяке

  • Прогноз погоды в Херсонесском Маяке
  • Монитор погоды в Херсонесском Маяке

АРХИВ ПОГОДЫ в Херсонесском Маяке

Время (UTC), дата Ветер
(напр.,м/с)
 
Видим.   Явления Облачность Т
(С)
Тd
(С)
f
(%)
Тe
(С)
Тes
(С)
Комфортность P
(гПа)
Po
(гПа)
Тmin
(С)
Tmax
(С)
R
(мм)
R24
(мм)
S
(см)
18 15.04 СЗ 4 10 км слаб. ливневой дождь 10/10 600 м
[Cb cap]
+7.2 +6.3 94 +4 +4 1013.2 1012.5 +10.4 0.6
21 15.04 СЗ 3 10 км слаб. ливневой дождь 10/10 600 м
[Cb cap]
+7.6 +6.1 90 +5 +5 1013.7 1013.3
00 16.04 СЗ 5 10 км слаб. ливневой дождь 10/10 600 м
[Cb cap]
+7.8 +5.5 85 +4 +4 1014.2 1013.5
03 16.04 СЗ 5 20 км {ливн. осадки} 10/10 600 м
[Cu Sc]
+8.3 +5.2 81 +5 +5 1014.2 1013.5 +7.1 2
06 16.04 Ю 3 10 км {ливн. осадки} 10/10 600 м
[Sc]
+9.3 +5.5 77 +7 +7 1014.3 1013.3 +7.1 1.0
09 16.04 ЮЗ 4 20 км 9/8 600 м
[Cu Sc Ac trans]
+10.2 +3.3 62 +8 +9 1014.8 1014.7
12 16.04 ЮЗ 4 20 км 9/8 600 м
[Cu Sc Ci fib]
+10.0 +1.0 54 +8 +9 1014.7 1014.7
15 16.04 СЗ 3 20 км 10/10 600 м
[Cu Sc]
+8.7 +2.4 65 +6 +6 1015.0 1014.3
18 16.04 З 2 20 км 8/8 600 м
[Cu Sc]
+8.1 +3.1 71 +6 +6 1016.0 1015.3 +11.0
21 16.04 В 2 20 км 10/10 600 м
[Cu Sc]
+6.8 +4.5 85 +5 +5 1015.8 1016.0
00 17.04 В 3 20 км 9/9 600 м
[Sc]
+5.7 +4.1 89 +2 +2 1015.2 1014.7
03 17.04 В 2 10 км 3/3 600 м
[Sc Ci fib]
+4.9 +3.5 91 +2 +2 1015.1 1014.7 +4.9
06 17.04 В 2 10 км 4/3 600 м
[Cu Sc Ac trans Ci fib]
+9.2 +5.2 76 +8 +12 1015.8 1016.0 +4.7
09 17.04 С 5 20 км 10/10 600 м
[Cu Sc]
+9.8 +5.2 73 +7 +7 1016.6 1016.0
12 17.04 С 5 20 км 9/8 600 м
[Cu Sc Ac trans]
+9.9 +5.4 74 +7 +8 1017.2 1017.3
15 17.04 С 5 20 км 10/10 600 м
[Sc]
+9.6 +6.9 83 +6 +6 1018.1 1017.3
18 17.04 СВ 4 20 км 10/10 600 м
[Sc]
+9.8 +7.4 85 +7 +7 1018.8 1018.1 +11.1
21 17.04 СВ 3 20 км {ливн. осадки} 10/10 600 м
[Sc]
+9.7 +7.9 89 +7 +7 1019.0 1018.7
00 18.04 СВ 6 20 км {ливн. осадки} 9/5 600 м
[Sc Ac trans]
+9.5 +4.9 73 +6 +6 1019.3 1018.7
03 18.04 СВ 5 20 км 8/3 600 м
[Sc Ac lent Ci fib]
+8.8 +4.5 74 +5 +5 1019.7 1018.7 +8.6 0.0
06 18.04 СВ 6 20 км слаб. ливневой дождь 9/8 600 м
[Cb cap Ci fib]
+8.4 +4.9 79 +4 +5 1021.2 1021.3 +8.0 0.0
09 18.04 СВ 9-11
{13}
20 км {ливн. осадки} 9/8 600 м
[Cu Sc Ac trans]
+8.6 +3.8 72 +4 +4 1022.1 1021.3
12 18.04 СВ 9-10
{13}
20 км {ливн. осадки} 9/8 600 м
[Cu Sc Ac As]
+8.6 +2.4 65 +4 +4 1021.8 1021.1
15 18.04 СВ 9-10
{13}
10 км 9/9 600 м
[Cb cap]
+7.5 +1.4 65 +3 +3 1021.6 1020.9 0.0
18 18.04 СВ 6
{12}
10 км слаб. ливневой дождь 9/9 600 м
[Cb cap]
+6.6 +2.2 73 +2 +2 1022.6 1021.9 +9.0 0.1
21 18.04 В 2
{11}
20 км в посл. час ливневой дождь 10/10 600 м
[Cb cap]
+5.8 +3.4 85 +3 +3 1022.1 1021.4
00 19.04 СВ 4 20 км {ливн. осадки} 3/3 600 м
[Cu med, cong Ci fib]
+5.6 +2.9 83 +2 +2 1020.8 1020.1
03 19.04 СВ 4 20 км 8/4 600 м
[Cu Sc Ci]
+5.5 +2.8 83 +2 +2 1020.0 1019.3 +5.3 0.9
06 19.04 СВ 6 20 км 10/3 600 м
[Cu Sc Ac As]
+7.1 +1.8 69 +3 +3 1020.3 1019.6 +5.3 0.8
09 19.04 СВ 8-11
{11}
20 км 9/9 600 м
[Cu Sc]
+9.6 -1.1 47 +6 +6 1020.3 1019.6
12 19.04 СВ 7
{14}
20 км 8/6 600 м
[Sc diur, vesp]
+10.4 -3.1 39 +7 +8 1020.8 1020.1
15 19.04 СВ 10-13
{14}
20 км 8/5 600 м
[Sc diur, vesp Cc]
+9.4 -3.7 39 +5 +5 1021.7 1021.0
18 19.04 СВ 5
{13}
20 км 3/3 600 м
[Sc]
+6.2 -0.9 60 +2 +2 1023.0 1022.3 +10.5
21 19.04 СВ 7-10
{10}
10 км слаб. ливневой дождь 10/10 600 м
[Cb cap]
+5.4 +1.9 78 0 0 1022.5 1021.8
00 20.04 СВ 8-11
{11}
10 км слаб. ливневой дождь 10/10 600 м
[Cb cap]
+4.8 +2.6 86 -1 -1 1021.1 1020.4
03 20.04 СВ 6
{13}
10 км слаб. ливневой дождь 10/10 600 м
[Cb cap]
+5.0 +3.1 88 -0 -0 1019.8 1019.1 +4.6 2
06 20.04 СВ 4 20 км {ливн. осадки} 10/10 600 м
[Cb cap]
+6.5 +4.4 86 +3 +3 1019.7 1019.0 +4.6 3
09 20.04 СВ 6
{11}
20 км 9/1 600 м
[Sc Ac As Ci fib]
+9.4 +2.0 60 +6 +9 1020.0 1019.3
12 20.04 СВ 10-12
{14}
20 км 9/3 600 м
[Sc As trans Cs]
+10.6 +1.4 53 +7 +7 1020.0 1019.3
15 20.04 СВ 11-13
{16}
20 км 8/3 600 м
[Cu Sc Ac lent Cc]
+10.7 +0.5 49 +7 +7 1020.4 1019.7 0.5
18 20.04 СВ 6
{15}
20 км 6/6 600 м
[Sc]
+9.0 +0.1 54 +6 +6 1021.8 1021.1 +10.7
21 20.04 СВ 3 20 км 4/3 600 м
[Sc Ac trans]
+7.3 +0.1 60 +5 +5 1021.8 1021.1
00 21.04 В 1 20 км 1/1 600 м
[Sc]
+5.1 -0.4 68 +4 +4 1021.4 1020.7
03 21.04 В 1 50 км 1/0
[Ac lent]
+4.0 +0.9 80 +3 +3 1021.4 1020.7 +4.0
06 21.04 СВ 4 20 км 3/1 600 м
[Cu hum Ac lent]
+10.0 +0.8 53 +8 +11 1021.8 1021.1 +3.8
09 21.04 СВ 9-11
{13}
20 км 4/4 600 м
[Cu hum]
+12.4 -1.5 38 +10 +11 1021.1 1020.4
12 21.04 СВ 9-12
{14}
20 км 3/3 600 м
[Cu hum]
+13.5 -2.3 33 +11 +12 1020.3 1019.6
15 21.04 СВ 9-10
{13}
20 км 1/0
[Ac lent]
+12.9 -3.9 31 +10 +10 1020.7 1020.0
18 21.04 СВ 3
{14}
20 км 1/0
[Ac lent]
+9.6 -2.8 42 +8 +8 1022.0 1021.3 +13.8
21 21.04 В 1 20 км 6/0
[Ac trans]
+7.0 -1.8 53 +7 +7 1021.7 1021.0
00 22.04 СЗ 1 20 км 8/0
[Ac trans]
+6.7 +0.3 64 +6 +6 1021.4 1020.7
03 22.04 штиль 0 20 км 3/1 600 м
[Sc Ci fib]
+4.9 -0.7 67 +4 +4 1021.5 1020.8 +4.9
06 22.04 С 3 20 км 4/1 600 м
[Cu med, cong Ac trans]
+7.8 +2.8 71 +5 +9 1022.0 1021.3 +4.8
09 22.04 СВ 10-12
{14}
20 км 8/8 600 м
[Cu med, cong]
+13.4 +0.8 42 +11 +11 1021.8 1021.1
12 22.04 СВ 10-11
{14}
20 км 3/3 600 м
[Cu Sc]
+14.2 -1.1 35 +12 +12 1021.7 1021.0
15 22.04 ЮЗ 4
{13}
20 км 3/3 600 м
[Cu Sc]
+14.3 +1.2 41 +13 +14 1022.8 1022.1

 

Местоположение метеостанции Херсонесский Маяк (город Севастополь, Россия): широта 44.58 долгота 33.38 высота над уровнем моря 4 м.

В архиве по умолчанию представлена погода в Херсонесском Маяке за последнюю неделю. Архивные данные за месяц целиком и за предыдущие месяцы, начиная с января 2011 года, Вы можете получить, выбрав интересующий диапазон дат из раскрывающегося списка и нажав кнопку "Ввод!".


*Определитесь, кто Вы:
робот инопланетянин человек

Внимание! Время в таблицах - всемирное. Для получения местного времени необходимо прибавить поправку, которая равна 3 ч.

Смотрите также архив погоды в соседних городах и на ближайших метеорологических станциях:

Погода в Севастополе (город Севастополь, Россия) (13 км)
Погода в Почтовом (Крым, Россия) (53 км)
Погода на Ай-Петри (Крым, Россия) (57 км)
Погода в Ялте (Крым, Россия) (64 км)
Погода в Евпатории (Крым, Россия) (67 км)
Погода в Симферополе (Крым, Россия) (68 км)
Погода в Никитском саду (Крым, Россия) (69 км)
Погода в Симферополе город (Крым, Россия) (71 км)
Погода на Ангарском Перевале (Крым, Россия) (79 км)
Погода в Алуште (Крым, Россия) (81 км)

Пояснения к столбцам:

Ветер - указаны скорость ветра в м/с - средняя за 10 мин, порывы в срок и между сроками (в фигурных скобках) и направление, откуда дует ветер: С - северный, СВ - северо-восточный, В - восточный, ЮВ - юго-восточный, Ю - южный, ЮЗ - юго-западный, З - западный, СЗ - северо-западный.
Видимость - горизонтальная дальность видимости в метрах или километрах. При видимости от 1 до 10 км при отсутствии осадков обычно наблюдается дымка, при ухудшении видимости до 1 км и менее - туман. В сухую погоду видимость может ухудшаться дымом, пылью или мглою.
Явления - указаны атмосферные явления, наблюдавшиеся в срок или в последний час перед сроком; фигурными скобками обозначены явления, наблюдавшиеся между сроками (за 1-3 часа до срока); квадратными скобками обозначены град или гололедные отложения с указанием их диаметра в мм.
Облачность - указаны через наклонную черту общая и нижняя облачность в баллах и высота нижней границы облаков в метрах; квадратными скобками обозначены формы облаков: Ci - перистые, Cs - перисто-слоистые, Cc - перисто-кучевые, Ac - высококучевые, As - высокослоистые, Sc - слоисто-кучевые, Ns - слоисто-дождевые, Cu - кучевые, Cb - кучево-дождевые. Подробнее классификацию облаков см. в Атласе облаков (PDF).
T - Температура воздуха - температура, измеренная на высоте 2 м над землей.
Td - Температура точки росы - температура, при понижении до которой содержащийся в воздухе водяной пар достигнет насыщения.
f - Относительная влажность воздуха - влажноcть воздуха, измеренная на высоте 2 м над землей.
Te - Эффективная температура - температура, которую ощущает одетый по сезону человек в тени. Характеристика душности погоды. При расчете учитывается влияние влажности воздуха и скорости ветра на теплоощущения человека.
Tes - Эффективная температура на солнце - температура, которую ощущает человек, с поправкой на солнечный нагрев. Характеристика знойности погоды. Зависит от высоты солнца над горизонтом, облачности и скорости ветра. Ночью, в пасмурную погоду, а также при ветре 12 м/с и более поправка равна нулю.
P - Атмосферное давление - приведенное к уровню моря атмосферное давление.
Po - Атмосферное давление - измеренное на уровне метеостанции атмосферное давление.
Tmin - Минимальная температура - минимум температуры воздуха на высоте 2 м над землей.
Tmax - Максимальная температура - максимум температуры воздуха на высоте 2 м над землей.
R - Количество осадков - Количество выпавших осадков за период времени, мм. При наведении курсора мыши на число - период времени, за который выпало указанное количество осадков.
R24 - Количество осадков - Количество выпавших осадков за 24 часа, мм.
S - Снежный покров - Высота снежного покрова, см. При наведении курсора мыши на число - состояние снежного покрова и степень покрытия местности в баллах.